Weather History for Sparta, TN

Change the Weather History Date:

Wednesday, November 21, 2012

  Actual Average (KCSV) Record (KCSV)
Temperature  
Mean Temperature 50 °F 46 °F  
Max Temperature 66 °F 55 °F 71 °F (1994)
Min Temperature 33 °F 36 °F 14 °F (1964)
Degree Days  
Heating Degree Days 14    
Month to date heating degree days  
Since 1 July heating degree days  
Cooling Degree Days 0    
Month to date cooling degree days  
Year to date cooling degree days  
Moisture  
Dew Point 42 °F    
Average Humidity 83    
Maximum Humidity 100    
Minimum Humidity 49    
Precipitation  
Precipitation 0.00 in 0.20 in 1.67 in (1973)
Month to date precipitation 3.35  
Year to date precipitation 48.39  
Sea Level Pressure  
Sea Level Pressure 30.17 in    
Wind  
Wind Speed 0 mph ()    
Max Wind Speed 6 mph    
Max Gust Speed -    
Visibility 9.1 miles    
Events      
T = Trace of Precipitation, MM = Missing Value Source: Averaged Metar Reports

Daily Weather History Graph

Daily Weather History Graph

Search for Another Location

Airport:

Trip Planner

Search our weather history database for the weather conditions in past years. The results will help you decide how hot, cold, wet, or windy it might be!

Date:

Astronomy

Nov. 21, 2012 Rise Set
Actual Time 6:25 AM CST 4:30 PM CST
Civil Twilight 5:57 AM CST 4:58 PM CST
Nautical Twilight 5:26 AM CST 5:29 PM CST
Astronomical Twilight 4:55 AM CST 6:00 PM CST
Moon 12:36 PM CST (11/21) No Moon Set
Length of Visible Light 11h 00m
Length of Day
10h 05m
First Quarter, 62% of the Moon is Illuminated
Nov 21
First Quarter
Nov 28
Full
Dec 6
Last Quarter
Dec 13
New
Dec 19
First Quarter

Hourly Weather History & Observations

Time (CST) Temp. Dew Point Humidity Pressure Visibility Wind Dir Wind Speed Gust Speed Precip Events Conditions
12:15 AM 48.2 °F 46.4 °F 93% 30.11 in 10.0 mi Calm Calm - N/A   Overcast
12:35 AM 48.2 °F 46.4 °F 93% 30.11 in 10.0 mi Calm Calm - N/A   Mostly Cloudy
12:55 AM 46.4 °F 46.4 °F 100% 30.11 in 10.0 mi Calm Calm - N/A   Overcast
1:15 AM 48.2 °F 44.6 °F 87% 30.11 in 10.0 mi Calm Calm - N/A   Scattered Clouds
1:35 AM 44.6 °F 42.8 °F 93% 30.11 in 10.0 mi Calm Calm - N/A   Partly Cloudy
1:55 AM 44.6 °F 42.8 °F 93% 30.11 in 10.0 mi Calm Calm - N/A   Clear
2:15 AM 39.2 °F 39.2 °F 100% 30.11 in 10.0 mi Calm Calm - N/A   Clear
2:35 AM 39.2 °F 39.2 °F 100% 30.10 in 10.0 mi Calm Calm - N/A   Clear
2:55 AM 39.2 °F 39.2 °F 100% 30.11 in 10.0 mi Calm Calm - N/A   Clear
3:15 AM 37.4 °F 37.4 °F 100% 30.11 in 8.0 mi Calm Calm - N/A   Clear
3:35 AM 39.2 °F 39.2 °F 100% 30.12 in 10.0 mi Calm Calm - N/A   Clear
3:55 AM 39.2 °F 37.4 °F 93% 30.12 in 7.0 mi Calm Calm - N/A   Clear
4:15 AM 37.4 °F 37.4 °F 100% 30.13 in 10.0 mi Calm Calm - N/A   Clear
4:35 AM 37.4 °F 37.4 °F 100% 30.14 in 5.0 mi Calm Calm - N/A   Clear
4:55 AM 37.4 °F 37.4 °F 100% 30.14 in 6.0 mi Calm Calm - N/A   Clear
5:15 AM 37.4 °F 35.6 °F 93% 30.15 in 5.0 mi Calm Calm - N/A   Clear
5:35 AM 35.6 °F 35.6 °F 100% 30.15 in 6.0 mi Calm Calm - N/A   Clear
5:55 AM 35.6 °F 35.6 °F 100% 30.16 in 4.0 mi Calm Calm - N/A   Clear
6:15 AM 35.6 °F 35.6 °F 100% 30.17 in 5.0 mi Calm Calm - N/A   Clear
6:35 AM 35.6 °F 35.6 °F 100% 30.17 in 4.0 mi Calm Calm - N/A   Clear
6:55 AM 35.6 °F 35.6 °F 100% 30.18 in 7.0 mi Calm Calm - N/A   Clear
7:15 AM 39.2 °F 39.2 °F 100% 30.19 in 6.0 mi Calm Calm - N/A   Clear
7:35 AM 41.0 °F 39.2 °F 93% 30.19 in 5.0 mi Calm Calm - N/A   Clear
7:55 AM 44.6 °F 42.8 °F 93% 30.19 in 10.0 mi Calm Calm - N/A   Clear
8:15 AM 46.4 °F 44.6 °F 93% 30.19 in 10.0 mi Calm Calm - N/A   Clear
8:35 AM 48.2 °F 44.6 °F 87% 30.19 in 10.0 mi Calm Calm - N/A   Clear
8:55 AM 53.6 °F 44.6 °F 72% 30.20 in 10.0 mi Calm Calm - N/A   Clear
9:15 AM 53.6 °F 46.4 °F 77% 30.20 in 10.0 mi Calm Calm - N/A   Clear
9:35 AM 57.2 °F 46.4 °F 67% 30.21 in 10.0 mi Calm Calm - N/A   Clear
9:55 AM 57.2 °F 46.4 °F 67% 30.21 in 10.0 mi Calm Calm - N/A   Clear
10:15 AM 59.0 °F 46.4 °F 63% 30.21 in 10.0 mi Calm Calm - N/A   Clear
10:35 AM 60.8 °F 46.4 °F 59% 30.20 in 10.0 mi Calm Calm - N/A   Clear
10:55 AM 62.6 °F 46.4 °F 55% 30.19 in 10.0 mi Calm Calm - N/A   Clear
11:15 AM 64.4 °F 46.4 °F 52% 30.19 in 10.0 mi Calm Calm - N/A   Clear
11:35 AM 64.4 °F 48.2 °F 56% 30.18 in 10.0 mi Calm Calm - N/A   Clear
11:55 AM 64.4 °F 48.2 °F 56% 30.18 in 10.0 mi Calm Calm - N/A   Clear
12:15 PM 64.4 °F 48.2 °F 56% 30.17 in 10.0 mi SE 3.5 mph - N/A   Clear
12:35 PM 64.4 °F 48.2 °F 56% 30.17 in 10.0 mi Calm Calm - N/A   Clear
12:55 PM 64.4 °F 48.2 °F 56% 30.16 in 10.0 mi NE 4.6 mph - N/A   Clear
1:15 PM 62.6 °F 48.2 °F 59% 30.16 in 10.0 mi NNE 5.8 mph - N/A   Clear
1:35 PM 64.4 °F 48.2 °F 56% 30.16 in 10.0 mi Calm Calm - N/A   Clear
1:55 PM 66.2 °F 48.2 °F 52% 30.16 in 10.0 mi North 4.6 mph - N/A   Partly Cloudy
2:15 PM 64.4 °F 46.4 °F 52% 30.16 in 10.0 mi NNW 5.8 mph - N/A   Clear
2:35 PM 66.2 °F 46.4 °F 49% 30.16 in 10.0 mi Variable 3.5 mph - N/A   Clear
2:55 PM 64.4 °F 46.4 °F 52% 30.16 in 10.0 mi NW 4.6 mph - N/A   Clear
3:15 PM 64.4 °F 46.4 °F 52% 30.16 in 10.0 mi North 5.8 mph - N/A   Clear
3:35 PM 62.6 °F 46.4 °F 55% 30.17 in 10.0 mi North 4.6 mph - N/A   Clear
3:55 PM 62.6 °F 46.4 °F 55% 30.17 in 10.0 mi North 4.6 mph - N/A   Clear
4:15 PM 60.8 °F 46.4 °F 59% 30.17 in 10.0 mi NNW 3.5 mph - N/A   Clear
4:35 PM 57.2 °F 46.4 °F 67% 30.17 in 10.0 mi Calm Calm - N/A   Clear
4:55 PM 51.8 °F 44.6 °F 76% 30.18 in 10.0 mi Calm Calm - N/A   Clear
5:15 PM 46.4 °F 42.8 °F 87% 30.19 in 10.0 mi Calm Calm - N/A   Clear
5:35 PM 46.4 °F 42.8 °F 87% 30.19 in 10.0 mi Calm Calm - N/A   Clear
5:55 PM 44.6 °F 42.8 °F 93% 30.19 in 10.0 mi Calm Calm - N/A   Clear
6:15 PM 44.6 °F 42.8 °F 93% 30.19 in 10.0 mi Calm Calm - N/A   Clear
6:35 PM 42.8 °F 41.0 °F 93% 30.19 in 10.0 mi Calm Calm - N/A   Clear
6:55 PM 42.8 °F 39.2 °F 87% 30.20 in 10.0 mi Calm Calm - N/A   Clear
7:15 PM 41.0 °F 39.2 °F 93% 30.20 in 10.0 mi Calm Calm - N/A   Clear
7:35 PM 42.8 °F 39.2 °F 87% 30.20 in 10.0 mi Calm Calm - N/A   Clear
7:55 PM 41.0 °F 39.2 °F 93% 30.20 in 10.0 mi Calm Calm - N/A   Clear
8:15 PM 39.2 °F 39.2 °F 100% 30.20 in 10.0 mi Calm Calm - N/A   Clear
8:35 PM 39.2 °F 37.4 °F 93% 30.20 in 10.0 mi Calm Calm - N/A   Clear
8:55 PM 37.4 °F 37.4 °F 100% 30.20 in 10.0 mi Calm Calm - N/A   Clear
9:15 PM 37.4 °F 37.4 °F 100% 30.20 in 10.0 mi Calm Calm - N/A   Clear
9:35 PM 39.2 °F 37.4 °F 93% 30.20 in 10.0 mi Calm Calm - N/A   Clear
9:55 PM 37.4 °F 37.4 °F 100% 30.20 in 10.0 mi Calm Calm - N/A   Clear
10:15 PM 35.6 °F 35.6 °F 100% 30.20 in 9.0 mi Calm Calm - N/A   Clear
10:35 PM 35.6 °F 35.6 °F 100% 30.20 in 7.0 mi Calm Calm - N/A   Clear
10:55 PM 37.4 °F 35.6 °F 93% 30.20 in 8.0 mi Calm Calm - N/A   Clear
11:15 PM 37.4 °F 35.6 °F 93% 30.20 in 9.0 mi Calm Calm - N/A   Clear
11:35 PM 35.6 °F 35.6 °F 100% 30.20 in 7.0 mi Calm Calm - N/A   Clear
11:55 PM 33.8 °F 33.8 °F 100% 30.20 in 6.0 mi Calm Calm - N/A   Clear